Point Pleasant, WV

5:44 PM EDT on September 26, 2017 (GMT -0400)
Point Pleasant

Weather History for K3I2 - May, 2012

Change the Weather History Date:

Friday, May 11, 2012

  Actual Average (KHTS) Record (KHTS)
Temperature  
Mean Temperature 54 °F -  
Max Temperature 71 °F 73 °F 94 °F (1936)
Min Temperature 37 °F 50 °F 30 °F (1947)
Degree Days  
Heating Degree Days 11    
Growing Degree Days 4 (Base 50)    
Moisture  
Dew Point 38 °F    
Average Humidity 62    
Maximum Humidity 93    
Minimum Humidity 25    
Precipitation  
Precipitation 0.00 in - - ()
Sea Level Pressure  
Sea Level Pressure 30.18 in    
Wind  
Wind Speed 1 mph (SW)    
Max Wind Speed 7 mph    
Max Gust Speed -    
Visibility 10 miles    
Events Fog    
Averages and records for this station are not official NWS values.
T = Trace of Precipitation, MM = Missing Value Source: NWS Daily Summary

Daily Weather History Graph

Daily Weather History Graph

Search for Another Location

Airport or City:

Trip Planner

Search our weather history database for the weather conditions in past years. The results will help you decide how hot, cold, wet, or windy it might be!

Date:

Astronomy

May. 11, 2012 Rise Set
Actual Time 6:19 AM EDT 8:30 PM EDT
Civil Twilight 5:49 AM EDT 9:00 PM EDT
Nautical Twilight 5:13 AM EDT 9:37 PM EDT
Astronomical Twilight 4:33 AM EDT 10:17 PM EDT
Moon 1:10 AM EDT (5/11) 11:49 AM EDT (5/11)
Length of Visible Light 15h 11m
Length of Day
14h 11m
Waning Gibbous, 63% of the Moon is Illuminated
May 11
Waning Gibbous
May 12
Last Quarter
May 20
New
May 28
First Quarter
Jun 4
Full

Hourly Weather History & Observations

Time (EDT) Temp. Dew Point Humidity Pressure Visibility Wind Dir Wind Speed Gust Speed Precip Events Conditions
12:15 AM 42.8 °F 35.6 °F 76% 30.06 in 10.0 mi Calm Calm - N/A   Clear
12:35 AM 42.8 °F 37.4 °F 81% 30.07 in 10.0 mi Calm Calm - N/A   Clear
12:55 AM 42.8 °F 37.4 °F 81% 30.07 in 10.0 mi Calm Calm - N/A   Clear
1:15 AM 41.0 °F 37.4 °F 87% 30.07 in 10.0 mi Calm Calm - N/A   Clear
1:35 AM 41.0 °F 37.4 °F 87% 30.08 in 10.0 mi Calm Calm - N/A   Clear
1:55 AM 41.0 °F 37.4 °F 87% 30.07 in 10.0 mi Calm Calm - N/A   Clear
2:15 AM 41.0 °F 37.4 °F 87% 30.08 in 10.0 mi Calm Calm - N/A   Clear
2:35 AM 41.0 °F 37.4 °F 87% 30.08 in 10.0 mi Calm Calm - N/A   Clear
2:55 AM 41.0 °F 37.4 °F 87% 30.09 in 10.0 mi Calm Calm - N/A   Clear
3:15 AM 39.2 °F 37.4 °F 93% 30.10 in 10.0 mi Calm Calm - N/A   Clear
3:35 AM 39.2 °F 37.4 °F 93% 30.10 in 10.0 mi Calm Calm - N/A   Clear
3:55 AM 39.2 °F 37.4 °F 93% 30.11 in 10.0 mi Calm Calm - N/A   Clear
4:15 AM 37.4 °F 35.6 °F 93% 30.12 in 10.0 mi Calm Calm - N/A   Clear
4:35 AM 37.4 °F 35.6 °F 93% 30.12 in 10.0 mi Calm Calm - N/A   Clear
4:55 AM 37.4 °F 35.6 °F 93% 30.13 in 10.0 mi Calm Calm - N/A   Clear
5:15 AM 37.4 °F 35.6 °F 93% 30.14 in 10.0 mi Calm Calm - N/A   Clear
5:35 AM 37.4 °F 35.6 °F 93% 30.14 in 10.0 mi Calm Calm - N/A   Scattered Clouds
5:55 AM 37.4 °F 35.6 °F 93% 30.16 in 10.0 mi Calm Calm - N/A   Mostly Cloudy
6:15 AM 37.4 °F 35.6 °F 93% 30.16 in 10.0 mi Calm Calm - N/A   Overcast
6:35 AM 37.4 °F 35.6 °F 93% 30.17 in 0.5 mi Calm Calm - N/A Fog Fog
6:55 AM 37.4 °F 35.6 °F 93% 30.18 in 5.0 mi Calm Calm - N/A   Mostly Cloudy
7:15 AM 39.2 °F 37.4 °F 93% 30.19 in 7.0 mi Calm Calm - N/A   Scattered Clouds
7:35 AM 41.0 °F 39.2 °F 93% 30.19 in 10.0 mi Calm Calm - N/A   Clear
7:55 AM 42.8 °F 41.0 °F 93% 30.20 in 10.0 mi Calm Calm - N/A   Clear
8:15 AM 44.6 °F 41.0 °F 87% 30.21 in 10.0 mi Calm Calm - N/A   Clear
8:35 AM 48.2 °F 42.8 °F 82% 30.22 in 10.0 mi Calm Calm - N/A   Clear
8:55 AM 50.0 °F 42.8 °F 76% 30.22 in 10.0 mi Calm Calm - N/A   Clear
9:15 AM 51.8 °F 44.6 °F 76% 30.22 in 10.0 mi Calm Calm - N/A   Clear
9:35 AM 55.4 °F 42.8 °F 63% 30.22 in 10.0 mi Calm Calm - N/A   Clear
9:55 AM 59.0 °F 44.6 °F 59% 30.22 in 10.0 mi Calm Calm - N/A   Clear
10:15 AM 60.8 °F 41.0 °F 48% 30.22 in 10.0 mi SW 3.5 mph - N/A   Clear
10:35 AM 62.6 °F 41.0 °F 45% 30.22 in 10.0 mi Calm Calm - N/A   Clear
10:55 AM 62.6 °F 39.2 °F 42% 30.22 in 10.0 mi South 3.5 mph - N/A   Clear
11:15 AM 64.4 °F 37.4 °F 37% 30.22 in 10.0 mi West 3.5 mph - N/A   Clear
11:35 AM 66.2 °F 35.6 °F 32% 30.22 in 10.0 mi Calm Calm - N/A   Clear
11:55 AM 66.2 °F 35.6 °F 32% 30.22 in 10.0 mi WSW 5.8 mph - N/A   Clear
12:15 PM 66.2 °F 33.8 °F 30% 30.21 in 10.0 mi Calm Calm - N/A   Clear
12:35 PM 68.0 °F 32.0 °F 26% 30.21 in 10.0 mi East 4.6 mph - N/A   Clear
12:55 PM 68.0 °F 33.8 °F 28% 30.21 in 10.0 mi East 4.6 mph - N/A   Clear
1:15 PM 68.0 °F 33.8 °F 28% 30.21 in 10.0 mi ESE 3.5 mph - N/A   Clear
1:55 PM 69.8 °F 33.8 °F 27% 30.21 in 10.0 mi West 3.5 mph - N/A   Clear
2:15 PM 69.8 °F 35.6 °F 28% 30.22 in 10.0 mi West 5.8 mph - N/A   Clear
2:35 PM 69.8 °F 33.8 °F 27% 30.22 in 10.0 mi West 4.6 mph - N/A   Clear
2:55 PM 71.6 °F 35.6 °F 27% 30.21 in 10.0 mi SSW 5.8 mph - N/A   Clear
3:15 PM 69.8 °F 35.6 °F 28% 30.21 in 10.0 mi SSW 3.5 mph - N/A   Clear
3:35 PM 71.6 °F 35.6 °F 27% 30.20 in 10.0 mi WSW 5.8 mph - N/A   Clear
3:55 PM 71.6 °F 35.6 °F 27% 30.20 in 10.0 mi SW 6.9 mph - N/A   Clear
4:15 PM 69.8 °F 32.0 °F 25% 30.19 in 10.0 mi Calm Calm - N/A   Clear
4:35 PM 71.6 °F 33.8 °F 25% 30.19 in 10.0 mi Calm Calm - N/A   Clear
4:55 PM 71.6 °F 35.6 °F 27% 30.19 in 10.0 mi West 5.8 mph - N/A   Clear
5:15 PM 69.8 °F 33.8 °F 27% 30.19 in 10.0 mi Calm Calm - N/A   Clear
5:35 PM 71.6 °F 35.6 °F 27% 30.19 in 10.0 mi Calm Calm - N/A   Clear
5:55 PM 71.6 °F 35.6 °F 27% 30.19 in 10.0 mi Calm Calm - N/A   Clear
6:15 PM 69.8 °F 32.0 °F 25% 30.19 in 10.0 mi Calm Calm - N/A   Clear
6:35 PM 69.8 °F 35.6 °F 28% 30.19 in 10.0 mi Calm Calm - N/A   Clear
6:55 PM 68.0 °F 37.4 °F 33% 30.19 in 10.0 mi SW 3.5 mph - N/A   Clear
7:35 PM 66.2 °F 41.0 °F 40% 30.19 in 10.0 mi Calm Calm - N/A   Clear
7:55 PM 62.6 °F 42.8 °F 48% 30.20 in 10.0 mi Calm Calm - N/A   Clear
8:15 PM 60.8 °F 42.8 °F 52% 30.21 in 10.0 mi Calm Calm - N/A   Clear
8:35 PM 57.2 °F 42.8 °F 59% 30.22 in 10.0 mi Calm Calm - N/A   Clear
8:55 PM 57.2 °F 41.0 °F 55% 30.22 in 10.0 mi Calm Calm - N/A   Clear
9:15 PM 53.6 °F 41.0 °F 62% 30.22 in 10.0 mi Calm Calm - N/A   Clear
9:35 PM 51.8 °F 42.8 °F 71% 30.23 in 10.0 mi Calm Calm - N/A   Clear
9:55 PM 51.8 °F 42.8 °F 71% 30.23 in 10.0 mi Calm Calm - N/A   Clear
10:15 PM 50.0 °F 42.8 °F 76% 30.24 in 10.0 mi Calm Calm - N/A   Clear
10:35 PM 50.0 °F 42.8 °F 76% 30.24 in 10.0 mi Calm Calm - N/A   Clear
10:55 PM 50.0 °F 42.8 °F 76% 30.24 in 10.0 mi Calm Calm - N/A   Clear
11:15 PM 48.2 °F 42.8 °F 82% 30.23 in 10.0 mi Calm Calm - N/A   Clear
11:35 PM 46.4 °F 44.6 °F 93% 30.23 in 10.0 mi Calm Calm - N/A   Clear
11:55 PM 46.4 °F 42.8 °F 87% 30.23 in 10.0 mi Calm Calm - N/A   Clear